DHLLM EDXW-EDXH

Flight info

Callsign DHLLM
Flight time 0h 22m
Altitude
Route
Aircraft EC35

Departure

Time 2026-04-20 18:45
Airport Westerland Sylt Airport (EDXW)

Arrival

Time 2026-04-20 19:07
Airport Helgoland-Düne Airport (EDXH)
Time Latitude Longitude Altitude Speed Heading
2026-04-20 18:42 54.91329 8.32894 27 ft 0 kts 357°
2026-04-20 18:43 54.91337 8.32873 35 ft 6 kts 211°
2026-04-20 18:43 54.91301 8.32851 39 ft 6 kts 172°
2026-04-20 18:44 54.91261 8.32836 44 ft 4 kts 102°
2026-04-20 18:44 54.91242 8.32831 51 ft 4 kts 81°
2026-04-20 18:44 54.91221 8.32848 53 ft 3 kts 78°
2026-04-20 18:44 54.91168 8.33010 165 ft 46 kts 129°
2026-04-20 18:45 54.90722 8.32974 425 ft 76 kts 189°
2026-04-20 18:45 54.90270 8.32321 691 ft 92 kts 220°
2026-04-20 18:45 54.89854 8.31398 916 ft 102 kts 225°
2026-04-20 18:45 54.89422 8.30331 1087 ft 117 kts 232°
2026-04-20 18:46 54.88897 8.29156 1191 ft 129 kts 216°
2026-04-20 18:46 54.88085 8.28456 1188 ft 134 kts 187°
2026-04-20 18:46 54.87161 8.28051 1189 ft 139 kts 186°
2026-04-20 18:46 54.86235 8.27639 1226 ft 135 kts 186°
2026-04-20 18:47 54.85342 8.27286 1292 ft 128 kts 184°
2026-04-20 18:47 54.84480 8.27011 1377 ft 124 kts 182°
2026-04-20 18:47 54.83643 8.26780 1465 ft 120 kts 180°
2026-04-20 18:47 54.82827 8.26572 1552 ft 117 kts 181°
2026-04-20 18:48 54.82034 8.26368 1624 ft 116 kts 178°
2026-04-20 18:48 54.81234 8.26209 1690 ft 115 kts 176°
2026-04-20 18:48 54.80436 8.26097 1749 ft 115 kts 175°
2026-04-20 18:48 54.79613 8.26006 1769 ft 124 kts 175°
2026-04-20 18:49 54.78721 8.25888 1743 ft 129 kts 176°
2026-04-20 18:49 54.77829 8.25751 1739 ft 131 kts 178°
2026-04-20 18:49 54.76918 8.25591 1746 ft 132 kts 178°
2026-04-20 18:49 54.76003 8.25412 1754 ft 133 kts 179°
2026-04-20 18:50 54.75077 8.25211 1768 ft 135 kts 180°
2026-04-20 18:50 54.74144 8.24989 1780 ft 136 kts 181°
2026-04-20 18:50 54.73207 8.24747 1791 ft 137 kts 182°
2026-04-20 18:50 54.72266 8.24485 1806 ft 137 kts 178°
2026-04-20 18:51 54.71331 8.24212 1785 ft 136 kts 178°
2026-04-20 18:51 54.70402 8.23812 1761 ft 143 kts 195°
2026-04-20 18:51 54.69564 8.22826 1749 ft 148 kts 212°
2026-04-20 18:51 54.68752 8.21745 1741 ft 147 kts 208°
2026-04-20 18:52 54.67898 8.20802 1723 ft 145 kts 201°
2026-04-20 18:52 54.67001 8.20031 1711 ft 143 kts 194°
2026-04-20 18:52 54.66085 8.19378 1704 ft 142 kts 191°
2026-04-20 18:52 54.65166 8.18790 1690 ft 141 kts 189°
2026-04-20 18:53 54.64245 8.18232 1684 ft 140 kts 189°
2026-04-20 18:53 54.63321 8.17684 1689 ft 140 kts 188°
2026-04-20 18:53 54.62398 8.17141 1684 ft 140 kts 188°
2026-04-20 18:53 54.61477 8.16600 1680 ft 140 kts 189°
2026-04-20 18:54 54.60556 8.16058 1688 ft 140 kts 188°
2026-04-20 18:54 54.59636 8.15517 1676 ft 139 kts 188°
2026-04-20 18:54 54.58719 8.14978 1662 ft 139 kts 188°
2026-04-20 18:54 54.57804 8.14440 1655 ft 139 kts 189°
2026-04-20 18:55 54.56888 8.13901 1644 ft 139 kts 187°
2026-04-20 18:55 54.55974 8.13364 1642 ft 138 kts 189°
2026-04-20 18:55 54.55063 8.12829 1634 ft 138 kts 189°
2026-04-20 18:55 54.54153 8.12295 1631 ft 138 kts 188°
2026-04-20 18:56 54.53244 8.11760 1634 ft 138 kts 188°
2026-04-20 18:56 54.52330 8.11222 1632 ft 139 kts 188°
2026-04-20 18:56 54.51413 8.10684 1626 ft 139 kts 189°
2026-04-20 18:56 54.50497 8.10147 1614 ft 139 kts 189°
2026-04-20 18:57 54.49584 8.09614 1605 ft 138 kts 189°
2026-04-20 18:57 54.48673 8.09083 1596 ft 138 kts 190°
2026-04-20 18:57 54.47766 8.08552 1608 ft 138 kts 187°
2026-04-20 18:57 54.46860 8.08022 1615 ft 137 kts 187°
2026-04-20 18:58 54.45956 8.07492 1616 ft 137 kts 187°
2026-04-20 18:58 54.45049 8.06961 1591 ft 137 kts 186°
2026-04-20 18:58 54.44144 8.06431 1565 ft 138 kts 186°
2026-04-20 18:58 54.43238 8.05901 1549 ft 138 kts 186°
2026-04-20 18:59 54.42333 8.05373 1532 ft 138 kts 186°
2026-04-20 18:59 54.41438 8.04851 1523 ft 138 kts 187°
2026-04-20 18:59 54.40519 8.04315 1530 ft 138 kts 188°
2026-04-20 18:59 54.39611 8.03786 1537 ft 138 kts 188°
2026-04-20 19:00 54.38707 8.03259 1531 ft 137 kts 187°
2026-04-20 19:00 54.37813 8.02739 1530 ft 137 kts 187°
2026-04-20 19:00 54.36898 8.02206 1533 ft 137 kts 187°
2026-04-20 19:00 54.36007 8.01688 1520 ft 137 kts 187°
2026-04-20 19:01 54.35102 8.01161 1513 ft 138 kts 186°
2026-04-20 19:01 54.34194 8.00633 1503 ft 138 kts 186°
2026-04-20 19:01 54.33285 8.00105 1487 ft 138 kts 188°
2026-04-20 19:01 54.32376 7.99577 1470 ft 138 kts 188°
2026-04-20 19:02 54.31465 7.99048 1464 ft 138 kts 187°
2026-04-20 19:02 54.30557 7.98522 1474 ft 138 kts 187°
2026-04-20 19:02 54.29648 7.97995 1478 ft 138 kts 187°
2026-04-20 19:02 54.28742 7.97470 1491 ft 138 kts 186°
2026-04-20 19:03 54.27837 7.96946 1496 ft 137 kts 186°
2026-04-20 19:03 54.26932 7.96423 1502 ft 137 kts 187°
2026-04-20 19:03 54.26025 7.95899 1493 ft 138 kts 186°
2026-04-20 19:03 54.25110 7.95371 1473 ft 139 kts 186°
2026-04-20 19:04 54.24194 7.94846 1443 ft 139 kts 188°
2026-04-20 19:04 54.23274 7.94322 1423 ft 140 kts 189°
2026-04-20 19:04 54.22418 7.93441 1134 ft 147 kts 213°
2026-04-20 19:04 54.21687 7.92215 756 ft 146 kts 219°
2026-04-20 19:05 54.20984 7.91010 457 ft 140 kts 216°
2026-04-20 19:05 54.20270 7.90063 373 ft 116 kts 212°
2026-04-20 19:05 54.19694 7.89189 431 ft 109 kts 222°
2026-04-20 19:05 54.19245 7.88220 563 ft 100 kts 233°
2026-04-20 19:06 54.18839 7.87386 688 ft 76 kts 178°
2026-04-20 19:06 54.18471 7.87671 557 ft 65 kts 107°
2026-04-20 19:06 54.18329 7.88459 392 ft 74 kts 87°
2026-04-20 19:06 54.18335 7.89395 219 ft 80 kts 82°
2026-04-20 19:07 54.18408 7.90247 217 ft 59 kts 75°
2026-04-20 19:07 54.18487 7.90812 139 ft 43 kts 72°
2026-04-20 19:07 54.18561 7.91218 58 ft 29 kts 68°
2026-04-20 19:07 54.18626 7.91398 42 ft 8 kts 50°
2026-04-20 19:08 54.18650 7.91429 22 ft 3 kts 347°
2026-04-20 19:08 54.18661 7.91427 8 ft 0 kts 324°